Kailua Kona, HI

10:29 AM HST on September 28, 2016 (GMT -1000)
Kona International At Keahole

Weather History for PHKO - June, 2014

Change the Weather History Date:

Thursday, June 12, 2014

  Actual Average Record
Temperature  
Mean Temperature 82 °F -  
Max Temperature 86 °F 81 °F 91 °F (1986)
Min Temperature 77 °F 72 °F 69 °F (1985)
Cooling Degree Days 16    
Growing Degree Days 32 (Base 50)    
Moisture  
Dew Point 70 °F    
Average Humidity 70    
Maximum Humidity 83    
Minimum Humidity 56    
Precipitation  
Precipitation 0.00 in - - ()
Sea Level Pressure  
Sea Level Pressure 29.98 in    
Wind  
Wind Speed 5 mph (SW)    
Max Wind Speed 15 mph    
Max Gust Speed -    
Visibility 10 miles    
Events Rain    
Averages and records for this station are not official NWS values.
T = Trace of Precipitation, MM = Missing Value Source: NWS Daily Summary

Daily Weather History Graph

Daily Weather History Graph

Search for Another Location

Airport or City:

Trip Planner

Search our weather history database for the weather conditions in past years. The results will help you decide how hot, cold, wet, or windy it might be!

Date:

Astronomy

Jun. 12, 2014 Rise Set
Actual Time 5:44 AM HST 7:03 PM HST
Civil Twilight 5:20 AM HST 7:27 PM HST
Nautical Twilight 4:51 AM HST 7:57 PM HST
Astronomical Twilight 4:21 AM HST 8:27 PM HST
Moon 6:56 PM HST (6/12) 5:25 AM HST (6/12)
Length of Visible Light 14h 07m
Length of Day
13h 18m
Full, 100% of the Moon is Illuminated
Jun 12
Full
Jun 12
Full
Jun 19
Last Quarter
Jun 26
New
Jul 5
First Quarter

Hourly Weather History & Observations

Time (HST) Temp. Heat Index Dew Point Humidity Pressure Visibility Wind Dir Wind Speed Gust Speed Precip Events Conditions
12:39 AM 78.8 °F - 73.4 °F 83% 29.99 in 10.0 mi Calm Calm - N/A   Overcast
12:53 AM 79.0 °F - 73.0 °F 82% 29.99 in 10.0 mi West 4.6 mph - N/A   Overcast
1:20 AM 78.8 °F - 71.6 °F 78% 29.98 in 10.0 mi West 5.8 mph - N/A   Overcast
1:53 AM 79.0 °F - 70.0 °F 74% 29.99 in 10.0 mi NW 4.6 mph - N/A   Mostly Cloudy
2:53 AM 77.0 °F - 71.1 °F 82% 29.97 in 10.0 mi ESE 6.9 mph - N/A   Mostly Cloudy
3:53 AM 77.0 °F - 70.0 °F 79% 29.96 in 10.0 mi Calm Calm - N/A   Partly Cloudy
4:53 AM 77.0 °F - 70.0 °F 79% 29.96 in 10.0 mi South 3.5 mph - N/A   Scattered Clouds
5:38 AM 77.0 °F - 69.8 °F 78% 29.97 in 10.0 mi ESE 5.8 mph - N/A   Mostly Cloudy
5:53 AM 77.0 °F - 71.1 °F 82% 29.97 in 10.0 mi SSE 8.1 mph - 0.00 in Rain Light Rain
6:53 AM 77.0 °F - 71.1 °F 82% 29.99 in 10.0 mi SE 5.8 mph - 0.00 in   Mostly Cloudy
7:22 AM 78.8 °F - 71.6 °F 78% 29.99 in 10.0 mi SE 3.5 mph - N/A   Scattered Clouds
7:53 AM 80.1 °F 83.2 °F 70.0 °F 71% 30.00 in 10.0 mi SE 4.6 mph - N/A   Partly Cloudy
8:53 AM 81.0 °F 84.1 °F 69.1 °F 67% 30.00 in 10.0 mi Calm Calm - N/A   Partly Cloudy
9:53 AM 84.0 °F 87.8 °F 69.1 °F 61% 29.99 in 10.0 mi SW 6.9 mph - N/A   Clear
10:53 AM 84.0 °F 88.4 °F 70.0 °F 63% 29.99 in 10.0 mi WSW 9.2 mph - N/A   Clear
11:53 AM 84.9 °F 89.4 °F 70.0 °F 61% 29.98 in 10.0 mi SSW 10.4 mph - N/A   Clear
12:53 PM 84.9 °F 89.4 °F 70.0 °F 61% 29.98 in 10.0 mi SSW 13.8 mph - N/A   Mostly Cloudy
1:53 PM 86.0 °F 90.7 °F 70.0 °F 59% 29.98 in 10.0 mi SSW 15.0 mph - N/A   Mostly Cloudy
2:53 PM 84.9 °F 89.4 °F 70.0 °F 61% 29.96 in 10.0 mi SW 12.7 mph - N/A   Partly Cloudy
3:53 PM 84.9 °F 89.4 °F 70.0 °F 61% 29.95 in 10.0 mi WSW 12.7 mph - N/A   Mostly Cloudy
4:53 PM 84.9 °F 89.4 °F 70.0 °F 61% 29.94 in 10.0 mi WSW 10.4 mph - N/A   Mostly Cloudy
5:53 PM 82.0 °F 85.9 °F 70.0 °F 67% 29.95 in 10.0 mi West 6.9 mph - N/A   Overcast
6:31 PM 82.4 °F 86.3 °F 69.8 °F 66% 29.96 in 10.0 mi WNW 8.1 mph - N/A   Overcast
6:41 PM 82.4 °F 86.3 °F 69.8 °F 66% 29.97 in 10.0 mi West 6.9 mph - N/A   Overcast
6:53 PM 82.0 °F 85.9 °F 70.0 °F 67% 29.97 in 10.0 mi West 9.2 mph - N/A   Overcast
7:53 PM 81.0 °F 83.8 °F 68.0 °F 65% 29.99 in 10.0 mi NW 11.5 mph - 0.00 in   Overcast
8:53 PM 81.0 °F 82.5 °F 64.0 °F 56% 29.99 in 10.0 mi Calm Calm - N/A   Scattered Clouds
9:53 PM 80.1 °F 82.3 °F 66.9 °F 64% 30.00 in 10.0 mi ESE 6.9 mph - N/A   Clear
10:53 PM 79.0 °F - 68.0 °F 69% 30.00 in 10.0 mi ESE 5.8 mph - N/A   Clear
11:53 PM 78.1 °F - 64.9 °F 64% 29.99 in 10.0 mi NNE 4.6 mph - N/A   Clear